This is the latest recevied weather packets stored in our database for station/object 9M2MIN. If no packets are shown the sender has not sent any weather packets the latest 10 day(s).
| Time | Temp. | Humidity | Pressure | Rain* | Wind** | Luminosity | Snow |
|---|---|---|---|---|---|---|---|
| 1788154290 | 91° F | 58% | 757.4 mmHg | - | - | - | - |
| 1788153390 | 91° F | 59% | 757.5 mmHg | - | - | - | - |
| 1788152490 | 91° F | 59% | 757.8 mmHg | - | - | - | - |
| 1788151589 | 91° F | 60% | 757.9 mmHg | - | - | - | - |
| 1788150689 | 90° F | 63% | 758.1 mmHg | - | - | - | - |
| 1788149788 | 90° F | 61% | 758.2 mmHg | - | - | - | - |
| 1788148888 | 90° F | 61% | 758.2 mmHg | - | - | - | - |
| 1788147995 | 90° F | 63% | 758.4 mmHg | - | - | - | - |
| 1788147095 | 90° F | 65% | 758.5 mmHg | - | - | - | - |
| 1788146196 | 90° F | 65% | 758.7 mmHg | - | - | - | - |
| 1788145294 | 90° F | 66% | 758.8 mmHg | - | - | - | - |
| 1788144394 | 90° F | 65% | 758.8 mmHg | - | - | - | - |
| 1788143494 | 90° F | 67% | 758.9 mmHg | - | - | - | - |
| 1788142595 | 89° F | 67% | 758.9 mmHg | - | - | - | - |
| 1788141692 | 89° F | 68% | 758.9 mmHg | - | - | - | - |
| 1788140792 | 89° F | 68% | 758.9 mmHg | - | - | - | - |
| 1788139892 | 89° F | 68% | 758.9 mmHg | - | - | - | - |
| 1788138992 | 89° F | 67% | 758.9 mmHg | - | - | - | - |
| 1788138091 | 89° F | 68% | 758.9 mmHg | - | - | - | - |
| 1788137191 | 89° F | 66% | 758.6 mmHg | - | - | - | - |
| 1788136291 | 89° F | 67% | 758.4 mmHg | - | - | - | - |
| 1788135391 | 89° F | 67% | 758.3 mmHg | - | - | - | - |
| 1788134490 | 89° F | 67% | 758.2 mmHg | - | - | - | - |
| 1788133589 | 89° F | 66% | 758.2 mmHg | - | - | - | - |
| 1788132689 | 89° F | 68% | 758.2 mmHg | - | - | - | - |
* Rain since midnight (hover to see other rain measurements)
** Current wind speed in m/s (hover to see current wind gust speed)